Hourly Data Report for December 28, 2017

VICTORIA UNIVERSITY CS
BRITISH COLUMBIA

48°27'25.200" N
123°18'16.600" W
60.10 m
1018598
71783
WYJ

Download Data

Hourly Data (December 2017)
Hourly Data Report for December 28, 2017
TIME
LST
Temp Definition
°C
Dew Point Definition
°C
Rel Hum Definition
%
Precip. Amount Definition
mm

Wind Dir Definition
10's deg

Wind Spd Definition
km/h
Visibility Definition
km
Stn Press Definition
kPa
Hmdx Definition


Wind Chill Definition


Weather Definition


00:00 4.5 3.4 93 0.3 7 2   101.65     LegendNANA
01:00 4.3 3.6 95 0.6 0 1   101.56     LegendNANA
02:00 4.5 3.9 96 0.2 14 3   101.54     LegendNANA
03:00 4.5 3.8 95 0.0 12 2   101.44     LegendNANA
04:00 4.5 3.7 95 0.0 13 2   101.35     LegendNANA
05:00 4.7 4.1 96 0.0 13 2   101.29     LegendNANA
06:00 4.8 4.3 97 0.2 10 3   101.22     LegendNANA
07:00 5.1 4.7 97 0.9 14 4   101.17     LegendNANA
08:00 5.0 4.6 97 1.5 18 4   101.09     LegendNANA
09:00 5.4 5.0 98 1.2 0 1   101.02     LegendNANA
10:00 5.7 5.4 98 2.1 10 1   100.92     LegendNANA
11:00 6.1 5.8 98 1.2 12 3   100.84     LegendNANA
12:00 6.0 5.5 97 1.2 11 2   100.70     LegendNANA
13:00 6.4 5.9 97 0.6 13 2   100.61     LegendNANA
14:00 6.8 6.2 97 0.5 13 1   100.56     LegendNANA
15:00 7.4 6.9 97 0.3 12 1   100.54     LegendNANA
16:00 7.5 7.1 97 0.2 0 1   100.55     LegendNANA
17:00 7.4 7.0 97 0.0 12 2   100.57     LegendNANA
18:00 7.4 7.0 97 0.0 0 1   100.55     LegendNANA
19:00 7.6 7.2 97 0.2 14 2   100.54     LegendNANA
20:00 7.6 7.1 97 0.0 3 1   100.54     LegendNANA
21:00 7.6 7.0 96 0.0 11 2   100.56     LegendNANA
22:00 7.5 6.9 96 0.0 11 2   100.60     LegendNANA
23:00 7.5 6.8 95 0.0 9 4   100.62     LegendNANA

Notes on Data Quality.

Legend

  • E = Estimated
  • M = Missing
  • NA = Not Available*
  • [empty] = Indicates an unobserved value
Date modified: